2010-04-29, 01:00:04,VALID,6.41232,VALID,90,VALID,-22.7051,VALID,0.0461592,VALID,19.5858,
2010-04-29, 07:00:04,VALID,918.236,VALID,0,VALID,97.8389,VALID,100.78,VALID,19.7808,VALID,148,VALID,0.734375,
2010-04-29, 07:01:04,VALID,918.227,VALID,0,VALID,97.8465,VALID,91.9696,VALID,19.7613,VALID,184,VALID,1.26992,
2010-04-29, 07:02:04,VALID,918.215,VALID,0,VALID,97.8465,VALID,93.2589,VALID,19.7598,VALID,178,VALID,0.680078,
2010-04-29, 07:03:04,VALID,918.216,VALID,0,VALID,97.8542,VALID,92.1845,VALID,19.7793,VALID,178,VALID,0.925781,
2010-04-29, 07:04:04,VALID,918.237,VALID,0,VALID,97.8389,VALID,94.2259,VALID,19.8003,VALID,178,VALID,1.00664,
2010-04-29, 07:05:04,VALID,918.225,VALID,0,VALID,97.8237,VALID,94.978,VALID,19.7793,VALID,178,VALID,1.0293,
2010-04-29, 07:06:04,VALID,918.247,VALID,0,VALID,97.8389,VALID,117.003,VALID,19.7793,VALID,178,VALID,0.852734,
2010-04-29, 07:07:04,VALID,918.256,VALID,0,VALID,97.8313,VALID,116.574,VALID,19.7793,VALID,133,VALID,0.946094,
2010-04-29, 07:08:04,VALID,918.258,VALID,0,VALID,97.8313,VALID,124.739,VALID,19.7793,VALID,170,VALID,1.26602,
2010-04-29, 07:09:04,VALID,918.256,VALID,0,VALID,97.8389,VALID,112.061,VALID,19.7988,VALID,150,VALID,0.546484,
2010-04-29, 07:10:04,VALID,918.304,VALID,0,VALID,97.8237,VALID,131.186,VALID,19.8393,VALID,150,VALID,1.04922,
2010-04-29, 07:11:04,VALID,918.305,VALID,0,VALID,97.8237,VALID,135.483,VALID,19.8783,VALID,108,VALID,0.845703,
2010-04-29, 07:12:04,VALID,918.332,VALID,0,VALID,97.8313,VALID,138.599,VALID,19.8963,VALID,116,VALID,0.790625,
2010-04-29, 07:13:04,VALID,918.373,VALID,0,VALID,97.8237,VALID,141.285,VALID,19.9758,VALID,135,VALID,0.649609,
2010-04-29, 07:14:04,VALID,918.372,VALID,0,VALID,97.816,VALID,145.475,VALID,19.9758,VALID,135,VALID,1.28359,
2010-04-29, 07:15:04,VALID,918.418,VALID,0,VALID,97.8008,VALID,148.054,VALID,20.0133,VALID,135,VALID,1.1707,
2010-04-29, 07:16:04,VALID,918.424,VALID,0,VALID,97.7932,VALID,143.864,VALID,20.0718,VALID,135,VALID,0.554297,
2010-04-29, 07:17:04,VALID,918.439,VALID,0,VALID,97.7932,VALID,159.98,VALID,20.1318,VALID,135,VALID,0.753906,
2010-04-29, 07:18:04,VALID,918.471,VALID,0,VALID,97.7627,VALID,164.815,VALID,20.1693,VALID,135,VALID,0.603125,
2010-04-29, 07:19:04,VALID,918.493,VALID,0,VALID,97.7551,VALID,167.178,VALID,20.2278,VALID,135,VALID,0.958203,
2010-04-29, 07:20:04,VALID,918.513,VALID,0,VALID,97.7703,VALID,174.699,VALID,20.2668,VALID,135,VALID,0.462109,
2010-04-29, 07:21:04,VALID,918.544,VALID,0,VALID,97.7551,VALID,177.923,VALID,20.4259,VALID,135,VALID,0.112891,
2010-04-29, 07:22:04,VALID,918.536,VALID,0,VALID,97.7246,VALID,180.609,VALID,20.5024,VALID,135,VALID,0.492969,
2010-04-29, 07:23:04,VALID,918.529,VALID,0,VALID,97.7322,VALID,169.005,VALID,20.5219,VALID,135,VALID,0.566016,
2010-04-29, 07:24:04,VALID,918.551,VALID,0,VALID,97.7093,VALID,185.121,VALID,20.5219,VALID,135,VALID,0.760938,
2010-04-29, 07:25:04,VALID,918.582,VALID,0,VALID,97.7474,VALID,150.632,VALID,20.3854,VALID,179,VALID,0.662891,
2010-04-29, 07:26:04,VALID,918.585,VALID,0,VALID,97.7551,VALID,169.22,VALID,20.3479,VALID,145,VALID,0.846484,
2010-04-29, 07:27:05,VALID,918.615,VALID,0,VALID,97.7322,VALID,167.716,VALID,20.2278,VALID,129,VALID,0.811328,
2010-04-29, 07:28:05,VALID,918.632,VALID,0,VALID,97.7551,VALID,162.236,VALID,20.2489,VALID,129,VALID,0.755859,
2010-04-29, 07:29:05,VALID,918.618,VALID,0,VALID,97.7246,VALID,152.781,VALID,20.2684,VALID,81,VALID,0.946484,
2010-04-29, 07:30:05,VALID,918.654,VALID,0,VALID,97.7551,VALID,162.021,VALID,20.2098,VALID,104,VALID,1.06719,
2010-04-29, 07:31:05,VALID,918.658,VALID,0,VALID,97.7169,VALID,204.138,VALID,20.2879,VALID,103,VALID,1.39844,
2010-04-29, 07:32:05,VALID,918.674,VALID,0,VALID,97.7246,VALID,187.915,VALID,20.3253,VALID,104,VALID,1.44062,
2010-04-29, 07:33:05,VALID,918.675,VALID,0,VALID,97.7246,VALID,218.32,VALID,20.3838,VALID,87,VALID,1.125,
2010-04-29, 07:34:05,VALID,918.714,VALID,0,VALID,97.7017,VALID,219.073,VALID,20.4439,VALID,86,VALID,0.892969,
2010-04-29, 07:35:05,VALID,918.707,VALID,0,VALID,97.6788,VALID,218.213,VALID,20.5804,VALID,86,VALID,1.03477,
2010-04-29, 07:36:05,VALID,918.716,VALID,0,VALID,97.6788,VALID,221.114,VALID,20.6585,VALID,86,VALID,0.74375,
2010-04-29, 07:37:05,VALID,918.75,VALID,0,VALID,97.6788,VALID,193.179,VALID,20.6194,VALID,86,VALID,0.999609,
2010-04-29, 07:38:05,VALID,918.77,VALID,0,VALID,97.6712,VALID,213.163,VALID,20.6975,VALID,86,VALID,0.789063,
2010-04-29, 07:39:05,VALID,918.781,VALID,0,VALID,97.6483,VALID,215.849,VALID,20.7365,VALID,86,VALID,0.714453,
2010-04-29, 07:40:05,VALID,918.789,VALID,0,VALID,97.6788,VALID,243.462,VALID,20.678,VALID,108,VALID,1.34727,
2010-04-29, 07:41:05,VALID,918.816,VALID,0,VALID,97.656,VALID,237.552,VALID,20.5984,VALID,108,VALID,0.9875,
2010-04-29, 07:42:05,VALID,918.83,VALID,0,VALID,97.6407,VALID,241.635,VALID,20.6959,VALID,108,VALID,0.807422,
2010-04-29, 07:43:05,VALID,918.836,VALID,0,VALID,97.6407,VALID,243.247,VALID,20.7544,VALID,108,VALID,0.669531,
2010-04-29, 07:44:05,VALID,918.832,VALID,0,VALID,97.595,VALID,251.197,VALID,20.873,VALID,108,VALID,0.661328,
2010-04-29, 07:45:05,VALID,918.866,VALID,0,VALID,97.6026,VALID,256.355,VALID,20.93,VALID,108,VALID,0.666797,
2010-04-29, 07:46:05,VALID,918.872,VALID,0,VALID,97.5721,VALID,263.123,VALID,20.969,VALID,108,VALID,0.696875,
2010-04-29, 07:47:05,VALID,918.872,VALID,0,VALID,97.5416,VALID,268.495,VALID,21.047,VALID,108,VALID,0.851953,
2010-04-29, 07:48:05,VALID,918.915,VALID,0,VALID,97.5416,VALID,270.752,VALID,21.1836,VALID,108,VALID,0.830078,
2010-04-29, 07:49:05,VALID,918.873,VALID,0,VALID,97.5264,VALID,274.62,VALID,21.2421,VALID,108,VALID,0.501953,
2010-04-29, 07:50:05,VALID,918.874,VALID,0,VALID,97.4959,VALID,278.058,VALID,21.2811,VALID,108,VALID,0.726953,
2010-04-29, 07:51:05,VALID,918.885,VALID,0,VALID,97.4959,VALID,284.182,VALID,21.2421,VALID,108,VALID,0.766016,
2010-04-29, 07:52:05,VALID,918.889,VALID,0,VALID,97.4501,VALID,290.199,VALID,21.2421,VALID,107,VALID,0.351172,
2010-04-29, 07:53:05,VALID,918.874,VALID,0,VALID,97.4577,VALID,295.678,VALID,21.3591,VALID,108,VALID,0.707031,
2010-04-29, 07:54:05,VALID,918.89,VALID,0,VALID,97.4349,VALID,299.761,VALID,21.3981,VALID,107,VALID,0.914844,
2010-04-29, 07:55:05,VALID,918.884,VALID,0,VALID,97.4044,VALID,304.918,VALID,21.4177,VALID,88,VALID,0.575391,
2010-04-29, 07:56:05,VALID,918.866,VALID,0,VALID,97.4044,VALID,308.034,VALID,21.4177,VALID,88,VALID,0.624609,
2010-04-29, 07:57:05,VALID,918.84,VALID,0,VALID,97.3968,VALID,310.935,VALID,21.5152,VALID,88,VALID,0.592578,
2010-04-29, 07:58:05,VALID,918.846,VALID,0,VALID,97.3663,VALID,306.852,VALID,21.5347,VALID,88,VALID,0.261328,
2010-04-29, 07:59:05,VALID,918.859,VALID,0,VALID,97.3205,VALID,319.637,VALID,21.7103,VALID,87,VALID,0.430078,
2010-04-29, 08:00:05,VALID,918.855,VALID,0,VALID,97.3358,VALID,323.076,VALID,21.7282,VALID,88,VALID,0.749219,
2010-04-29, 08:01:05,VALID,918.876,VALID,0,VALID,97.3129,VALID,326.406,VALID,21.8452,VALID,87,VALID,0.633984,
2010-04-29, 08:02:05,VALID,918.889,VALID,0,VALID,97.29,VALID,332.853,VALID,21.9054,VALID,88,VALID,0.816406,
2010-04-29, 08:03:05,VALID,918.916,VALID,0,VALID,97.2595,VALID,336.935,VALID,21.8257,VALID,88,VALID,0.761328,
2010-04-29, 08:04:05,VALID,918.943,VALID,0,VALID,97.2367,VALID,341.77,VALID,22.0013,VALID,87,VALID,0.758984,
2010-04-29, 08:05:05,VALID,918.953,VALID,0,VALID,97.1757,VALID,346.283,VALID,22.042,VALID,88,VALID,0.610937,
2010-04-29, 08:06:05,VALID,918.921,VALID,0,VALID,97.1452,VALID,352.622,VALID,22.1201,VALID,88,VALID,0.951563,
2010-04-29, 08:07:05,VALID,918.968,VALID,0,VALID,97.1071,VALID,360.895,VALID,22.1786,VALID,88,VALID,0.663281,
2010-04-29, 08:08:05,VALID,918.981,VALID,0,VALID,97.0308,VALID,327.051,VALID,22.0794,VALID,74,VALID,1.14805,
2010-04-29, 08:09:05,VALID,919.011,VALID,0,VALID,96.9089,VALID,365.085,VALID,22.0403,VALID,27,VALID,0.703516,
2010-04-29, 08:10:05,VALID,919.027,VALID,0,VALID,96.6954,VALID,238.734,VALID,22.0403,VALID,27,VALID,0.496484,
2010-04-29, 08:11:05,VALID,919.073,VALID,0,VALID,96.5353,VALID,259.47,VALID,22.0989,VALID,27,VALID,0.433203,
2010-04-29, 08:12:05,VALID,919.061,VALID,0,VALID,96.1008,VALID,397.317,VALID,21.9818,VALID,293,VALID,1.08164,
2010-04-29, 08:13:05,VALID,919.074,VALID,0,VALID,96.1236,VALID,393.342,VALID,21.9216,VALID,293,VALID,0.556641,
2010-04-29, 08:14:05,VALID,919.11,VALID,0,VALID,96.1084,VALID,397.855,VALID,21.9038,VALID,293,VALID,0.562109,
2010-04-29, 08:15:05,VALID,919.102,VALID,0,VALID,96.0169,VALID,369.812,VALID,21.8469,VALID,293,VALID,0.619922,
2010-04-29, 08:16:05,VALID,919.13,VALID,0,VALID,96.1313,VALID,393.449,VALID,21.8257,VALID,293,VALID,0.624609,
2010-04-29, 08:17:05,VALID,919.146,VALID,0,VALID,96.1923,VALID,401.4,VALID,21.8647,VALID,293,VALID,0.462109,
2010-04-29, 08:18:05,VALID,919.179,VALID,0,VALID,96.0093,VALID,401.615,VALID,21.8274,VALID,293,VALID,0.764453,
2010-04-29, 08:19:05,VALID,919.19,VALID,0,VALID,95.7882,VALID,406.557,VALID,21.7688,VALID,293,VALID,0.777344,
2010-04-29, 08:20:05,VALID,919.206,VALID,0,VALID,95.7425,VALID,408.814,VALID,21.7282,VALID,293,VALID,0.739453,
2010-04-29, 08:21:05,VALID,919.208,VALID,0,VALID,95.7349,VALID,402.367,VALID,21.7493,VALID,293,VALID,0.757031,
2010-04-29, 08:22:05,VALID,919.227,VALID,0,VALID,95.6129,VALID,407.739,VALID,21.6891,VALID,293,VALID,0.532812,
2010-04-29, 08:23:05,VALID,919.261,VALID,0,VALID,95.651,VALID,397.855,VALID,21.7282,VALID,293,VALID,0.605859,
2010-04-29, 08:24:05,VALID,919.262,VALID,0,VALID,95.4833,VALID,415.045,VALID,21.7087,VALID,293,VALID,0.585547,
2010-04-29, 08:25:05,VALID,919.251,VALID,0,VALID,95.3537,VALID,417.301,VALID,21.7672,VALID,293,VALID,0.668359,
2010-04-29, 08:26:05,VALID,919.31,VALID,0,VALID,94.82,VALID,427.401,VALID,21.7672,VALID,293,VALID,0.913281,
2010-04-29, 08:27:05,VALID,919.323,VALID,0,VALID,94.3321,VALID,442.98,VALID,21.7672,VALID,293,VALID,0.885938,
2010-04-29, 08:28:05,VALID,919.345,VALID,0,VALID,94.1492,VALID,459.418,VALID,21.746,VALID,292,VALID,0.919141,
2010-04-29, 08:29:05,VALID,919.346,VALID,0,VALID,94.0653,VALID,448.567,VALID,21.7867,VALID,292,VALID,0.959766,
2010-04-29, 08:30:05,VALID,919.371,VALID,0,VALID,94.6066,VALID,437.178,VALID,21.8647,VALID,291,VALID,0.724219,
2010-04-29, 08:31:05,VALID,919.395,VALID,0,VALID,94.9496,VALID,442.658,VALID,21.9801,VALID,291,VALID,0.417188,
2010-04-29, 08:32:05,VALID,919.394,VALID,0,VALID,95.0792,VALID,445.988,VALID,22.1379,VALID,291,VALID,0.514063,
2010-04-29, 08:33:05,VALID,919.418,VALID,0,VALID,94.7972,VALID,449.426,VALID,22.2533,VALID,291,VALID,0.652734,
2010-04-29, 08:34:05,VALID,919.368,VALID,0,VALID,94.4465,VALID,468.014,VALID,22.3525,VALID,292,VALID,0.65,
2010-04-29, 08:35:05,VALID,919.393,VALID,0,VALID,93.7223,VALID,464.361,VALID,22.3703,VALID,291,VALID,0.607813,
2010-04-29, 08:36:05,VALID,919.409,VALID,0,VALID,93.0743,VALID,469.088,VALID,22.3703,VALID,291,VALID,0.792578,
2010-04-29, 08:37:05,VALID,919.377,VALID,0,VALID,93.0438,VALID,464.683,VALID,22.4306,VALID,291,VALID,0.697266,
2010-04-29, 08:38:05,VALID,919.403,VALID,0,VALID,93.1353,VALID,467.691,VALID,22.4094,VALID,291,VALID,0.426953,
2010-04-29, 08:39:05,VALID,919.408,VALID,0,VALID,93.1886,VALID,470.27,VALID,22.4874,VALID,291,VALID,0.614453,
2010-04-29, 08:40:05,VALID,919.413,VALID,0,VALID,93.1276,VALID,464.79,VALID,22.585,VALID,291,VALID,0.616797,
2010-04-29, 08:41:05,VALID,919.413,VALID,0,VALID,92.3501,VALID,472.741,VALID,22.5655,VALID,291,VALID,0.697266,
2010-04-29, 08:42:05,VALID,919.414,VALID,0,VALID,93.6842,VALID,479.08,VALID,22.6435,VALID,291,VALID,0.253125,
2010-04-29, 08:43:05,VALID,919.421,VALID,0,VALID,92.5254,VALID,490.684,VALID,22.624,VALID,291,VALID,0.6625,
2010-04-29, 08:44:05,VALID,919.363,VALID,0,VALID,93.3106,VALID,503.147,VALID,22.6843,VALID,292,VALID,0.333984,
2010-04-29, 08:45:05,VALID,919.373,VALID,0,VALID,92.6931,VALID,507.982,VALID,22.6647,VALID,254,VALID,0.964453,
2010-04-29, 08:46:05,VALID,919.343,VALID,0,VALID,93.3945,VALID,508.949,VALID,22.7428,VALID,250,VALID,0.487891,
2010-04-29, 08:47:05,VALID,919.358,VALID,0,VALID,92.9981,VALID,520.123,VALID,22.8209,VALID,250,VALID,0.767187,
2010-04-29, 08:48:05,VALID,919.361,VALID,0,VALID,92.9371,VALID,534.52,VALID,22.8989,VALID,250,VALID,0.4625,
2010-04-29, 08:49:05,VALID,919.379,VALID,0,VALID,93.2725,VALID,483.27,VALID,22.9983,VALID,250,VALID,0.503125,
2010-04-29, 08:50:05,VALID,919.401,VALID,0,VALID,92.5483,VALID,515.073,VALID,23.0746,VALID,250,VALID,0.689844,
2010-04-29, 08:51:05,VALID,919.415,VALID,0,VALID,92.6169,VALID,558.049,VALID,23.0941,VALID,250,VALID,0.472656,
2010-04-29, 08:52:05,VALID,919.455,VALID,0,VALID,92.594,VALID,497.882,VALID,23.1331,VALID,250,VALID,0.599609,
2010-04-29, 08:53:05,VALID,919.464,VALID,0,VALID,92.2433,VALID,202.204,VALID,23.1331,VALID,269,VALID,1.05,
2010-04-29, 08:54:05,VALID,919.474,VALID,0,VALID,91.946,VALID,201.022,VALID,23.1331,VALID,261,VALID,0.719922,
2010-04-29, 08:55:05,VALID,919.523,VALID,0,VALID,91.3819,VALID,200.378,VALID,22.9965,VALID,261,VALID,0.747266,
2010-04-29, 08:56:05,VALID,919.516,VALID,0,VALID,92.5788,VALID,213.378,VALID,22.938,VALID,261,VALID,0.741406,
2010-04-29, 08:57:05,VALID,919.547,VALID,0,VALID,92.6169,VALID,218.965,VALID,22.9185,VALID,262,VALID,0.690234,
2010-04-29, 08:58:05,VALID,919.536,VALID,0,VALID,92.5711,VALID,227.99,VALID,22.8989,VALID,261,VALID,0.478516,
2010-04-29, 08:59:05,VALID,919.544,VALID,0,VALID,93.0133,VALID,229.279,VALID,22.8972,VALID,262,VALID,0.492969,
2010-04-29, 09:00:05,VALID,919.555,VALID,0,VALID,92.6245,VALID,228.742,VALID,22.8794,VALID,261,VALID,0.763672,
2010-04-29, 09:01:05,VALID,919.565,VALID,0,VALID,91.359,VALID,224.015,VALID,22.7428,VALID,262,VALID,0.785156,
2010-04-29, 09:02:05,VALID,919.581,VALID,0,VALID,92.1595,VALID,197.369,VALID,22.624,VALID,294,VALID,0.764844,
2010-04-29, 09:03:05,VALID,919.622,VALID,0,VALID,92.3501,VALID,158.905,VALID,22.6062,VALID,295,VALID,0.403125,
2010-04-29, 09:04:05,VALID,919.625,VALID,0,VALID,92.5178,VALID,154.071,VALID,22.5672,VALID,295,VALID,0.473437,
2010-04-29, 09:05:05,VALID,919.654,VALID,0,VALID,92.3424,VALID,159.872,VALID,22.4679,VALID,295,VALID,0.837109,
2010-04-29, 09:06:05,VALID,919.664,VALID,0,VALID,92.7846,VALID,166.964,VALID,22.4501,VALID,295,VALID,0.573438,
2010-04-29, 09:07:05,VALID,919.671,VALID,0,VALID,92.4415,VALID,206.072,VALID,22.3916,VALID,295,VALID,0.619141,
2010-04-29, 09:08:05,VALID,919.669,VALID,0,VALID,93.3259,VALID,193.287,VALID,22.4306,VALID,295,VALID,0.192188,
2010-04-29, 09:09:05,VALID,919.687,VALID,0,VALID,92.2586,VALID,135.376,VALID,22.3916,VALID,295,VALID,0.725781,
2010-04-29, 09:10:05,VALID,919.686,VALID,0,VALID,92.2281,VALID,116.036,VALID,22.3916,VALID,295,VALID,0.629687,
2010-04-29, 09:11:05,VALID,919.662,VALID,0,VALID,92.5254,VALID,133.764,VALID,22.372,VALID,295,VALID,0.689062,
2010-04-29, 09:12:05,VALID,919.659,VALID,0,VALID,92.8685,VALID,148.591,VALID,22.333,VALID,295,VALID,0.289063,
2010-04-29, 09:13:05,VALID,919.614,VALID,0,VALID,92.6779,VALID,148.161,VALID,22.3135,VALID,295,VALID,0.390234,
2010-04-29, 09:14:05,VALID,919.649,VALID,0,VALID,92.0756,VALID,160.625,VALID,22.294,VALID,295,VALID,0.98125,
2010-04-29, 09:15:05,VALID,919.656,VALID,0,VALID,92.5406,VALID,269.033,VALID,22.2728,VALID,295,VALID,0.589844,
2010-04-29, 09:16:05,VALID,919.63,VALID,0,VALID,93.7147,VALID,193.502,VALID,22.3899,VALID,295,VALID,0.25,
2010-04-29, 09:17:05,VALID,919.629,VALID,0,VALID,93.1276,VALID,164.6,VALID,22.4679,VALID,295,VALID,0.928516,
2010-04-29, 09:18:05,VALID,919.62,VALID,0,VALID,92.7236,VALID,143.112,VALID,22.5264,VALID,295,VALID,0.613672,
2010-04-29, 09:19:05,VALID,919.637,VALID,0,VALID,92.8608,VALID,127.318,VALID,22.6045,VALID,7,VALID,0.876562,
2010-04-29, 09:20:05,VALID,919.66,VALID,0,VALID,92.0604,VALID,122.483,VALID,22.624,VALID,7,VALID,0.785937,
2010-04-29, 09:21:05,VALID,919.664,VALID,0,VALID,91.2066,VALID,124.954,VALID,22.624,VALID,7,VALID,0.453516,
2010-04-29, 09:22:05,VALID,919.65,VALID,0,VALID,92.1366,VALID,127.64,VALID,22.6435,VALID,7,VALID,0.759766,
2010-04-29, 09:23:05,VALID,919.67,VALID,0,VALID,91.7173,VALID,134.516,VALID,22.6045,VALID,7,VALID,0.621484,
2010-04-29, 09:24:05,VALID,919.68,VALID,0,VALID,90.8711,VALID,149.343,VALID,22.585,VALID,7,VALID,0.705078,
2010-04-29, 09:25:05,VALID,919.68,VALID,0,VALID,91.2294,VALID,161.269,VALID,22.6045,VALID,7,VALID,0.78125,
2010-04-29, 09:26:05,VALID,919.676,VALID,0,VALID,92.068,VALID,164.815,VALID,22.6435,VALID,7,VALID,0.605078,
2010-04-29, 09:27:05,VALID,919.697,VALID,0,VALID,91.3133,VALID,176.096,VALID,22.7021,VALID,7,VALID,0.641016,
2010-04-29, 09:28:05,VALID,919.688,VALID,0,VALID,91.9003,VALID,203.064,VALID,22.7216,VALID,7,VALID,0.939062,
2010-04-29, 09:29:05,VALID,919.664,VALID,0,VALID,91.6106,VALID,732.534,VALID,22.7216,VALID,60,VALID,1.20898,
2010-04-29, 09:30:05,VALID,919.652,VALID,0,VALID,91.481,VALID,205.642,VALID,22.7038,VALID,36,VALID,1.41523,
2010-04-29, 09:31:05,VALID,919.654,VALID,0,VALID,92.5788,VALID,195.865,VALID,22.7055,VALID,53,VALID,0.973437,
2010-04-29, 09:32:05,VALID,919.634,VALID,0,VALID,92.777,VALID,176.848,VALID,22.7233,VALID,53,VALID,1.12773,
2010-04-29, 09:33:05,VALID,919.639,VALID,0,VALID,92.6626,VALID,170.187,VALID,22.7623,VALID,53,VALID,1.24375,
2010-04-29, 09:34:05,VALID,919.647,VALID,0,VALID,92.6702,VALID,170.509,VALID,22.8031,VALID,53,VALID,1.08203,
2010-04-29, 09:35:05,VALID,919.659,VALID,0,VALID,92.4949,VALID,180.823,VALID,22.7836,VALID,53,VALID,1.29609,
2010-04-29, 09:36:05,VALID,919.656,VALID,0,VALID,92.4873,VALID,203.279,VALID,22.8226,VALID,53,VALID,1.22109,
2010-04-29, 09:37:05,VALID,919.694,VALID,0,VALID,92.2738,VALID,313.084,VALID,22.8014,VALID,53,VALID,1.12617,
2010-04-29, 09:38:05,VALID,919.639,VALID,0,VALID,92.2891,VALID,274.297,VALID,22.8209,VALID,53,VALID,0.959766,
2010-04-29, 09:39:05,VALID,919.661,VALID,0,VALID,92.6093,VALID,253.669,VALID,22.8616,VALID,53,VALID,0.847656,
2010-04-29, 09:40:05,VALID,919.7,VALID,0,VALID,92.7465,VALID,259.363,VALID,22.8794,VALID,52,VALID,1.03867,
2010-04-29, 09:41:05,VALID,919.678,VALID,0,VALID,92.19,VALID,239.379,VALID,22.8404,VALID,52,VALID,0.507031,
2010-04-29, 09:42:05,VALID,919.685,VALID,0,VALID,93.1124,VALID,229.817,VALID,22.8794,VALID,52,VALID,0.383203,
2010-04-29, 09:43:05,VALID,919.704,VALID,0,VALID,92.7922,VALID,308.678,VALID,22.9397,VALID,52,VALID,0.312891,
2010-04-29, 09:44:05,VALID,919.743,VALID,0,VALID,92.8837,VALID,269.677,VALID,23.0551,VALID,52,VALID,0.406641,
2010-04-29, 09:45:05,VALID,919.739,VALID,0,VALID,93.0209,VALID,254.743,VALID,23.2307,VALID,52,VALID,0.605469,
2010-04-29, 09:46:05,VALID,919.757,VALID,0,VALID,90.9473,VALID,267.851,VALID,23.2893,VALID,51,VALID,0.982422,
2010-04-29, 09:47:05,VALID,919.719,VALID,0,VALID,91.5648,VALID,369.812,VALID,23.2893,VALID,286,VALID,0.650781,
2010-04-29, 09:48:05,VALID,919.718,VALID,0,VALID,92.2052,VALID,894.448,VALID,23.3283,VALID,286,VALID,0.35,
2010-04-29, 09:49:05,VALID,919.757,VALID,0,VALID,90.8864,VALID,766.915,VALID,23.4259,VALID,286,VALID,1,
2010-04-29, 09:50:05,VALID,919.703,VALID,0,VALID,89.8038,VALID,453.079,VALID,23.4863,VALID,286,VALID,1.04141,
2010-04-29, 09:51:05,VALID,919.691,VALID,0,VALID,91.077,VALID,400.97,VALID,23.5235,VALID,18,VALID,0.846484,
2010-04-29, 09:52:05,VALID,919.685,VALID,0,VALID,91.1456,VALID,753.807,VALID,23.6406,VALID,18,VALID,0.558984,
2010-04-29, 09:53:05,VALID,919.711,VALID,0,VALID,91.8088,VALID,871.455,VALID,23.7773,VALID,16,VALID,0.271094,
2010-04-29, 09:54:05,VALID,919.676,VALID,0,VALID,90.2308,VALID,232.932,VALID,23.8163,VALID,254,VALID,0.644531,
2010-04-29, 09:55:05,VALID,919.682,VALID,0,VALID,90.4518,VALID,206.824,VALID,23.7773,VALID,254,VALID,0.809766,
2010-04-29, 09:56:05,VALID,919.689,VALID,0,VALID,90.8864,VALID,200.915,VALID,23.7382,VALID,254,VALID,0.659766,
2010-04-29, 09:57:05,VALID,919.689,VALID,0,VALID,90.7034,VALID,243.891,VALID,23.6797,VALID,254,VALID,0.526953,
2010-04-29, 09:58:05,VALID,919.716,VALID,0,VALID,91.0236,VALID,216.816,VALID,23.6797,VALID,254,VALID,0.278125,
2010-04-29, 09:59:05,VALID,919.722,VALID,0,VALID,90.8787,VALID,192.105,VALID,23.6406,VALID,254,VALID,0.729297,
2010-04-29, 10:00:05,VALID,919.734,VALID,0,VALID,89.2626,VALID,196.295,VALID,23.6211,VALID,254,VALID,0.548828,
2010-04-29, 10:01:05,VALID,919.725,VALID,0,VALID,89.8496,VALID,222.403,VALID,23.5821,VALID,254,VALID,0.656641,
2010-04-29, 10:02:05,VALID,919.737,VALID,0,VALID,89.8343,VALID,255.173,VALID,23.543,VALID,254,VALID,0.922266,
2010-04-29, 10:03:05,VALID,919.709,VALID,0,VALID,89.3846,VALID,353.374,VALID,23.5022,VALID,254,VALID,0.492188,
2010-04-29, 10:04:05,VALID,919.717,VALID,0,VALID,89.7124,VALID,309.538,VALID,23.5235,VALID,254,VALID,0.739062,
2010-04-29, 10:05:05,VALID,919.765,VALID,0,VALID,90.2689,VALID,315.447,VALID,23.543,VALID,254,VALID,0.629687,
2010-04-29, 10:06:05,VALID,919.728,VALID,0,VALID,89.9563,VALID,636.589,VALID,23.5803,VALID,254,VALID,0.505859,
2010-04-29, 10:07:05,VALID,919.75,VALID,0,VALID,89.537,VALID,848.678,VALID,23.6211,VALID,254,VALID,0.664063,
2010-04-29, 10:08:05,VALID,919.739,VALID,0,VALID,90.2536,VALID,839.115,VALID,23.6992,VALID,254,VALID,0.19375,
2010-04-29, 10:09:05,VALID,919.751,VALID,0,VALID,89.1635,VALID,517.759,VALID,23.8358,VALID,316,VALID,0.886719,
2010-04-29, 10:10:05,VALID,919.742,VALID,0,VALID,88.7061,VALID,384.424,VALID,23.8163,VALID,316,VALID,0.791797,
2010-04-29, 10:11:05,VALID,919.765,VALID,0,VALID,90.0554,VALID,296,VALID,23.8145,VALID,351,VALID,1.52617,
2010-04-29, 10:12:05,VALID,919.77,VALID,0,VALID,87.9666,VALID,254.528,VALID,23.8163,VALID,43,VALID,1.23789,
2010-04-29, 10:13:05,VALID,919.77,VALID,0,VALID,89.8648,VALID,239.486,VALID,23.8145,VALID,2,VALID,1.53789,
2010-04-29, 10:14:04,VALID,919.766,VALID,0,VALID,90.0707,VALID,328.018,VALID,23.8926,VALID,338,VALID,0.933594,
2010-04-29, 10:15:04,VALID,919.741,VALID,0,VALID,89.1482,VALID,266.991,VALID,23.8731,VALID,6,VALID,1.52344,
2010-04-29, 10:16:04,VALID,919.734,VALID,0,VALID,89.8496,VALID,275.157,VALID,23.9335,VALID,27,VALID,0.217187,
2010-04-29, 10:17:04,VALID,919.686,VALID,0,VALID,89.2702,VALID,315.125,VALID,23.9512,VALID,26,VALID,0.905859,
2010-04-29, 10:18:04,VALID,919.693,VALID,0,VALID,88.7366,VALID,318.456,VALID,23.9707,VALID,26,VALID,0.5625,
2010-04-29, 10:19:04,VALID,919.657,VALID,0,VALID,89.2321,VALID,479.94,VALID,24.0311,VALID,26,VALID,0.263672,
2010-04-29, 10:20:04,VALID,919.68,VALID,0,VALID,87.3567,VALID,313.621,VALID,24.0097,VALID,26,VALID,1.10664,
2010-04-29, 10:21:04,VALID,919.661,VALID,0,VALID,86.7087,VALID,312.224,VALID,23.953,VALID,262,VALID,1.09766,
2010-04-29, 10:22:04,VALID,919.649,VALID,0,VALID,87.7455,VALID,445.129,VALID,23.8731,VALID,262,VALID,0.85625,
2010-04-29, 10:23:04,VALID,919.629,VALID,0,VALID,86.8917,VALID,453.079,VALID,23.9121,VALID,262,VALID,1.07539,
2010-04-29, 10:24:04,VALID,919.601,VALID,0,VALID,87.4787,VALID,843.306,VALID,23.8731,VALID,262,VALID,0.951563,
2010-04-29, 10:25:04,VALID,919.566,VALID,0,VALID,88.7289,VALID,834.925,VALID,23.9707,VALID,262,VALID,0.340234,
2010-04-29, 10:26:04,VALID,919.528,VALID,0,VALID,87.837,VALID,814.726,VALID,24.0878,VALID,262,VALID,0.964844,
2010-04-29, 10:27:04,VALID,919.533,VALID,0,VALID,88.7442,VALID,804.842,VALID,24.363,VALID,262,VALID,0.504297,
2010-04-29, 10:28:04,VALID,919.516,VALID,0,VALID,84.9553,VALID,793.345,VALID,24.5192,VALID,262,VALID,1.22148,
2010-04-29, 10:29:04,VALID,919.518,VALID,0,VALID,85.0697,VALID,797.428,VALID,24.4392,VALID,262,VALID,0.967969,
2010-04-29, 10:30:04,VALID,919.495,VALID,0,VALID,84.8334,VALID,800.759,VALID,24.4002,VALID,263,VALID,0.820313,
2010-04-29, 10:31:04,VALID,919.499,VALID,0,VALID,86.8307,VALID,800.329,VALID,24.5368,VALID,262,VALID,0.201562,
2010-04-29, 10:32:04,VALID,919.465,VALID,0,VALID,86.8612,VALID,800.759,VALID,24.7926,VALID,262,VALID,0.377344,
2010-04-29, 10:33:04,VALID,919.451,VALID,0,VALID,84.193,VALID,803.875,VALID,25.0055,VALID,262,VALID,0.962891,
2010-04-29, 10:34:04,VALID,919.451,VALID,0,VALID,83.6136,VALID,806.131,VALID,25.1031,VALID,262,VALID,0.75,